HDA760 VHHX-ZPPP

Flight info

Callsign HDA760
Flight time 1h 59m
Altitude 34100
Route BEKOL DCT VIBOS R473 POU A599 LXI LXI1A
Aircraft A320/M-SDE3FGHIRWY/LB1

Departure

Time 2026-05-06 04:03
Airport Hong Kong International Airport Kai Tak (VHHX)

Arrival

Time 2026-05-06 06:02
Airport Kunming Changshui International Airport (ZPPP)
Time Latitude Longitude Altitude Speed Heading
2026-05-06 03:48 22.32690 114.19622 37 ft 0 kts 314°
2026-05-06 04:00 22.32692 114.19619 34 ft 1 kts 314°
2026-05-06 04:00 22.32703 114.19607 36 ft 3 kts 314°
2026-05-06 04:01 22.32724 114.19584 37 ft 5 kts 314°
2026-05-06 04:01 22.32731 114.19547 38 ft 6 kts 246°
2026-05-06 04:01 22.32697 114.19510 38 ft 9 kts 222°
2026-05-06 04:01 22.32637 114.19448 38 ft 15 kts 224°
2026-05-06 04:02 22.32552 114.19359 38 ft 18 kts 224°
2026-05-06 04:02 22.32471 114.19321 38 ft 9 kts 142°
2026-05-06 04:02 22.32461 114.19332 38 ft 5 kts 134°
2026-05-06 04:02 22.32280 114.19537 38 ft 71 kts 134°
2026-05-06 04:03 22.31798 114.20075 36 ft 125 kts 133°
2026-05-06 04:03 22.31091 114.20868 57 ft 164 kts 133°
2026-05-06 04:03 22.30314 114.21750 638 ft 159 kts 132°
2026-05-06 04:03 22.29533 114.22629 1015 ft 165 kts 131°
2026-05-06 04:04 22.28731 114.23523 1419 ft 166 kts 131°
2026-05-06 04:04 22.27922 114.24417 1926 ft 166 kts 132°
2026-05-06 04:04 22.27119 114.25306 2418 ft 166 kts 133°
2026-05-06 04:04 22.26316 114.26198 2937 ft 166 kts 133°
2026-05-06 04:05 22.25497 114.27108 3353 ft 177 kts 134°
2026-05-06 04:05 22.24587 114.28119 3600 ft 199 kts 135°
2026-05-06 04:05 22.23567 114.29253 3913 ft 219 kts 134°
2026-05-06 04:05 22.22461 114.30484 4264 ft 237 kts 135°
2026-05-06 04:06 22.21301 114.31781 4886 ft 243 kts 136°
2026-05-06 04:06 22.20107 114.33115 5549 ft 248 kts 137°
2026-05-06 04:06 22.18904 114.34462 6297 ft 251 kts 136°
2026-05-06 04:06 22.17642 114.35873 6687 ft 271 kts 136°
2026-05-06 04:07 22.16171 114.37187 6949 ft 279 kts 150°
2026-05-06 04:07 22.14615 114.38438 6995 ft 281 kts 136°
2026-05-06 04:07 22.13575 114.40232 6997 ft 287 kts 111°
2026-05-06 04:07 22.13290 114.41638 6998 ft 290 kts 96°
2026-05-06 04:08 22.13502 114.44537 6995 ft 293 kts 78°
2026-05-06 04:08 22.14136 114.46633 6994 ft 296 kts 68°
2026-05-06 04:08 22.15126 114.48645 7188 ft 316 kts 57°
2026-05-06 04:08 22.16547 114.50536 7631 ft 329 kts 44°
2026-05-06 04:09 22.17696 114.51613 8032 ft 332 kts 35°
2026-05-06 04:09 22.20390 114.53198 8908 ft 335 kts 18°
2026-05-06 04:09 22.21895 114.53661 9371 ft 334 kts
2026-05-06 04:09 22.24203 114.53890 10054 ft 332 kts 356°
2026-05-06 04:10 22.26485 114.53572 10663 ft 331 kts 343°
2026-05-06 04:10 22.29309 114.52346 11456 ft 330 kts 327°
2026-05-06 04:10 22.30588 114.51405 11862 ft 330 kts 319°
2026-05-06 04:10 22.32668 114.49024 12637 ft 330 kts 303°
2026-05-06 04:11 22.33465 114.47622 13030 ft 331 kts 298°
2026-05-06 04:11 22.34667 114.45493 13624 ft 333 kts 301°
2026-05-06 04:11 22.35961 114.43370 14151 ft 336 kts 302°
2026-05-06 04:11 22.37260 114.41297 14637 ft 339 kts 302°
2026-05-06 04:12 22.38591 114.39178 15126 ft 342 kts 302°
2026-05-06 04:12 22.39927 114.37038 15611 ft 344 kts 302°
2026-05-06 04:12 22.41259 114.34884 16096 ft 347 kts 302°
2026-05-06 04:12 22.42597 114.32701 16560 ft 350 kts 302°
2026-05-06 04:13 22.43943 114.30490 17040 ft 353 kts 302°
2026-05-06 04:13 22.45295 114.28260 17535 ft 356 kts 302°
2026-05-06 04:13 22.46651 114.26018 18020 ft 358 kts 302°
2026-05-06 04:13 22.48024 114.23750 18463 ft 361 kts 302°
2026-05-06 04:14 22.49402 114.21473 18864 ft 364 kts 302°
2026-05-06 04:14 22.50801 114.19160 19060 ft 374 kts 302°
2026-05-06 04:14 22.52243 114.16776 19294 ft 382 kts 302°
2026-05-06 04:14 22.53556 114.14269 19667 ft 385 kts 292°
2026-05-06 04:15 22.54423 114.11525 20067 ft 387 kts 282°
2026-05-06 04:15 22.54822 114.08647 20474 ft 390 kts 276°
2026-05-06 04:15 22.55117 114.05718 20901 ft 392 kts 276°
2026-05-06 04:15 22.55416 114.02774 21358 ft 394 kts 276°
2026-05-06 04:16 22.55719 113.99821 21792 ft 396 kts 276°
2026-05-06 04:16 22.56025 113.96853 22198 ft 399 kts 276°
2026-05-06 04:16 22.56333 113.93866 22600 ft 401 kts 276°
2026-05-06 04:16 22.56641 113.90858 22987 ft 404 kts 276°
2026-05-06 04:17 22.56947 113.87863 23367 ft 406 kts 276°
2026-05-06 04:17 22.57257 113.84815 23702 ft 409 kts 276°
2026-05-06 04:17 22.57569 113.81750 24018 ft 411 kts 276°
2026-05-06 04:17 22.57879 113.78671 24327 ft 413 kts 276°
2026-05-06 04:18 22.58189 113.75577 24632 ft 415 kts 276°
2026-05-06 04:18 22.58499 113.72476 24949 ft 416 kts 276°
2026-05-06 04:18 22.58811 113.69356 25259 ft 417 kts 276°
2026-05-06 04:18 22.59126 113.66231 25551 ft 419 kts 276°
2026-05-06 04:19 22.59441 113.63083 25842 ft 421 kts 276°
2026-05-06 04:19 22.59757 113.59934 26128 ft 423 kts 276°
2026-05-06 04:19 22.60075 113.56760 26407 ft 425 kts 276°
2026-05-06 04:19 22.60394 113.53581 26679 ft 426 kts 276°
2026-05-06 04:20 22.60714 113.50384 26939 ft 428 kts 276°
2026-05-06 04:20 22.61035 113.47168 27226 ft 430 kts 276°
2026-05-06 04:20 22.61355 113.43952 27485 ft 432 kts 276°
2026-05-06 04:20 22.61710 113.40719 27765 ft 434 kts 280°
2026-05-06 04:21 22.62579 113.37590 28019 ft 437 kts 293°
2026-05-06 04:21 22.64128 113.34745 28278 ft 441 kts 306°
2026-05-06 04:21 22.66288 113.32369 28538 ft 447 kts 320°
2026-05-06 04:21 22.68951 113.30622 28889 ft 450 kts 334°
2026-05-06 04:22 22.71916 113.29486 29267 ft 452 kts 339°
2026-05-06 04:22 22.74907 113.28447 29653 ft 452 kts 340°
2026-05-06 04:22 22.77863 113.27428 30037 ft 451 kts 340°
2026-05-06 04:23 22.83832 113.25380 30723 ft 449 kts 339°
2026-05-06 04:23 22.86808 113.24352 31091 ft 448 kts 339°
2026-05-06 04:23 22.89760 113.23323 31456 ft 446 kts 339°
2026-05-06 04:23 22.92711 113.22293 31835 ft 445 kts 339°
2026-05-06 04:24 22.95590 113.21108 32201 ft 440 kts 329°
2026-05-06 04:24 22.98128 113.19304 32575 ft 433 kts 316°
2026-05-06 04:24 23.00185 113.16971 32959 ft 427 kts 304°
2026-05-06 04:24 23.01700 113.14233 33339 ft 421 kts 291°
2026-05-06 04:25 23.02611 113.11233 33724 ft 417 kts 279°
2026-05-06 04:25 23.02943 113.08116 34030 ft 416 kts 274°
2026-05-06 04:25 23.03158 113.04983 34092 ft 418 kts 274°
2026-05-06 04:26 23.03599 112.98597 34100 ft 427 kts 274°
2026-05-06 04:26 23.04043 112.92149 34108 ft 429 kts 274°
2026-05-06 04:27 23.04493 112.85692 34103 ft 429 kts 274°
2026-05-06 04:27 23.04942 112.79244 34108 ft 429 kts 274°
2026-05-06 04:28 23.05384 112.72787 34097 ft 429 kts 274°
2026-05-06 04:28 23.05814 112.66319 34094 ft 429 kts 274°
2026-05-06 04:29 23.06249 112.59850 34090 ft 430 kts 274°
2026-05-06 04:29 23.06685 112.53374 34097 ft 430 kts 274°
2026-05-06 04:30 23.07356 112.46975 34093 ft 430 kts 282°
2026-05-06 04:30 23.08711 112.40656 34095 ft 430 kts 282°
2026-05-06 04:31 23.10046 112.34318 34098 ft 430 kts 282°
2026-05-06 04:31 23.11371 112.27985 34090 ft 430 kts 282°
2026-05-06 04:32 23.12704 112.21648 34100 ft 430 kts 282°
2026-05-06 04:32 23.14038 112.15302 34096 ft 431 kts 282°
2026-05-06 04:33 23.15363 112.08962 34103 ft 430 kts 282°
2026-05-06 04:33 23.16683 112.02617 34098 ft 430 kts 282°
2026-05-06 04:34 23.18004 111.96273 34096 ft 430 kts 282°
2026-05-06 04:34 23.19323 111.89928 34089 ft 430 kts 282°
2026-05-06 04:35 23.20640 111.83591 34089 ft 430 kts 282°
2026-05-06 04:35 23.21964 111.77255 34086 ft 430 kts 283°
2026-05-06 04:36 23.23318 111.70912 34080 ft 430 kts 283°
2026-05-06 04:36 23.24678 111.64574 34078 ft 431 kts 283°
2026-05-06 04:37 23.26020 111.58259 34080 ft 431 kts 283°
2026-05-06 04:37 23.27361 111.51908 34080 ft 431 kts 282°
2026-05-06 04:38 23.28675 111.45546 34080 ft 431 kts 282°
2026-05-06 04:38 23.29972 111.39182 34079 ft 431 kts 282°
2026-05-06 04:39 23.31270 111.32814 34072 ft 431 kts 282°
2026-05-06 04:39 23.32575 111.26456 34069 ft 431 kts 282°
2026-05-06 04:40 23.33885 111.20090 34065 ft 431 kts 282°
2026-05-06 04:40 23.35183 111.13730 34065 ft 431 kts 282°
2026-05-06 04:41 23.36520 111.07369 34062 ft 431 kts 283°
2026-05-06 04:41 23.37888 111.01014 34065 ft 432 kts 283°
2026-05-06 04:42 23.39250 110.94647 34062 ft 432 kts 283°
2026-05-06 04:42 23.40604 110.88284 34059 ft 432 kts 283°
2026-05-06 04:43 23.41951 110.81913 34059 ft 432 kts 283°
2026-05-06 04:43 23.43284 110.75530 34060 ft 432 kts 283°
2026-05-06 04:44 23.44608 110.69192 34058 ft 432 kts 283°
2026-05-06 04:44 23.45917 110.62809 34061 ft 432 kts 282°
2026-05-06 04:45 23.47215 110.56419 34057 ft 432 kts 282°
2026-05-06 04:45 23.48511 110.50020 34057 ft 432 kts 282°
2026-05-06 04:46 23.49809 110.43629 34058 ft 432 kts 283°
2026-05-06 04:46 23.51109 110.37228 34060 ft 432 kts 283°
2026-05-06 04:47 23.52422 110.30845 34064 ft 432 kts 283°
2026-05-06 04:47 23.53773 110.24456 34062 ft 432 kts 283°
2026-05-06 04:48 23.55123 110.18074 34071 ft 432 kts 283°
2026-05-06 04:48 23.56464 110.11691 34072 ft 432 kts 283°
2026-05-06 04:49 23.57799 110.05311 34071 ft 431 kts 283°
2026-05-06 04:49 23.59117 109.98977 34069 ft 431 kts 283°
2026-05-06 04:50 23.60441 109.92614 34065 ft 431 kts 283°
2026-05-06 04:50 23.61765 109.86242 34061 ft 430 kts 283°
2026-05-06 04:51 23.63085 109.79872 34057 ft 431 kts 283°
2026-05-06 04:51 23.64396 109.73516 34063 ft 429 kts 283°
2026-05-06 04:52 23.65702 109.67169 34067 ft 429 kts 283°
2026-05-06 04:52 23.67008 109.60827 34060 ft 428 kts 283°
2026-05-06 04:53 23.68303 109.54494 34054 ft 427 kts 283°
2026-05-06 04:53 23.69581 109.48170 34048 ft 427 kts 283°
2026-05-06 04:54 23.70857 109.41843 34048 ft 427 kts 282°
2026-05-06 04:54 23.72135 109.35529 34042 ft 426 kts 282°
2026-05-06 04:55 23.73407 109.29209 34047 ft 426 kts 282°
2026-05-06 04:55 23.74682 109.22895 34044 ft 426 kts 282°
2026-05-06 04:56 23.75957 109.16569 34042 ft 426 kts 282°
2026-05-06 04:56 23.76618 109.10152 34041 ft 426 kts 274°
2026-05-06 04:57 23.77006 109.03708 34039 ft 426 kts 274°
2026-05-06 04:57 23.77398 108.97252 34033 ft 426 kts 274°
2026-05-06 04:58 23.77789 108.90793 34033 ft 426 kts 274°
2026-05-06 04:58 23.78111 108.85430 34037 ft 426 kts 274°
2026-05-06 04:59 23.78490 108.78977 34033 ft 426 kts 274°
2026-05-06 04:59 23.78926 108.71478 34032 ft 426 kts 274°
2026-05-06 05:00 23.79245 108.66074 34032 ft 426 kts 274°
2026-05-06 05:00 23.79688 108.58583 34033 ft 425 kts 274°
2026-05-06 05:01 23.80059 108.52135 34030 ft 425 kts 274°
2026-05-06 05:01 23.80430 108.45691 34033 ft 425 kts 274°
2026-05-06 05:02 23.80736 108.40328 34027 ft 426 kts 274°
2026-05-06 05:02 23.81097 108.33881 34029 ft 425 kts 273°
2026-05-06 05:03 23.81459 108.27438 34030 ft 425 kts 274°
2026-05-06 05:03 23.81817 108.21000 34029 ft 425 kts 274°
2026-05-06 05:04 23.82173 108.14562 34022 ft 425 kts 274°
2026-05-06 05:04 23.82513 108.08119 34022 ft 425 kts 274°
2026-05-06 05:05 23.82838 108.01680 34024 ft 425 kts 273°
2026-05-06 05:05 23.83157 107.95238 34023 ft 425 kts 273°
2026-05-06 05:06 23.83482 107.88797 34029 ft 425 kts 273°
2026-05-06 05:06 23.83814 107.82358 34027 ft 425 kts 274°
2026-05-06 05:07 23.84278 107.75923 34023 ft 424 kts 275°
2026-05-06 05:07 23.84789 107.69502 34019 ft 424 kts 274°
2026-05-06 05:08 23.85269 107.63122 34024 ft 424 kts 274°
2026-05-06 05:08 23.85725 107.56700 34014 ft 424 kts 274°
2026-05-06 05:09 23.86181 107.50276 34014 ft 424 kts 274°
2026-05-06 05:09 23.86639 107.43843 34009 ft 424 kts 274°
2026-05-06 05:10 23.87096 107.37418 34012 ft 424 kts 274°
2026-05-06 05:10 23.87546 107.31003 34000 ft 424 kts 274°
2026-05-06 05:11 23.87993 107.24584 33999 ft 423 kts 274°
2026-05-06 05:11 23.88438 107.18176 33988 ft 423 kts 274°
2026-05-06 05:12 23.88877 107.11765 33986 ft 423 kts 274°
2026-05-06 05:12 23.89312 107.05355 33985 ft 423 kts 274°
2026-05-06 05:13 23.89751 106.98948 33980 ft 423 kts 274°
2026-05-06 05:13 23.90182 106.92541 33977 ft 423 kts 274°
2026-05-06 05:14 23.90616 106.86140 33968 ft 423 kts 274°
2026-05-06 05:14 23.91047 106.79735 33969 ft 422 kts 274°
2026-05-06 05:15 23.91467 106.73335 33957 ft 422 kts 274°
2026-05-06 05:15 23.91888 106.66929 33945 ft 422 kts 274°
2026-05-06 05:16 23.92335 106.60523 33945 ft 423 kts 277°
2026-05-06 05:16 23.93545 106.54234 33945 ft 423 kts 281°
2026-05-06 05:17 23.94823 106.47955 33936 ft 423 kts 281°
2026-05-06 05:17 23.96092 106.41671 33937 ft 423 kts 281°
2026-05-06 05:18 23.97364 106.35392 33938 ft 423 kts 281°
2026-05-06 05:18 23.98621 106.29157 33937 ft 422 kts 281°
2026-05-06 05:19 23.99878 106.22890 33940 ft 421 kts 281°
2026-05-06 05:19 24.01134 106.16642 33928 ft 420 kts 281°
2026-05-06 05:20 24.02387 106.10403 33933 ft 420 kts 281°
2026-05-06 05:20 24.03631 106.04166 33933 ft 420 kts 281°
2026-05-06 05:21 24.04871 105.97935 33934 ft 419 kts 281°
2026-05-06 05:21 24.06108 105.91699 33919 ft 419 kts 281°
2026-05-06 05:22 24.07345 105.85482 33921 ft 418 kts 281°
2026-05-06 05:22 24.08581 105.79260 33918 ft 418 kts 281°
2026-05-06 05:23 24.09812 105.73032 33910 ft 419 kts 281°
2026-05-06 05:23 24.11846 105.63730 33919 ft 419 kts 284°
2026-05-06 05:24 24.13409 105.57598 33914 ft 418 kts 284°
2026-05-06 05:24 24.14958 105.51465 33910 ft 417 kts 284°
2026-05-06 05:25 24.16457 105.45334 33904 ft 417 kts 283°
2026-05-06 05:25 24.17931 105.39197 33900 ft 417 kts 283°
2026-05-06 05:26 24.19409 105.33068 33900 ft 417 kts 283°
2026-05-06 05:26 24.20892 105.26928 33904 ft 416 kts 283°
2026-05-06 05:27 24.22367 105.20800 33895 ft 416 kts 283°
2026-05-06 05:27 24.23761 105.14698 33898 ft 415 kts 282°
2026-05-06 05:28 24.25101 105.08550 33896 ft 415 kts 282°
2026-05-06 05:28 24.26440 105.02403 33905 ft 415 kts 282°
2026-05-06 05:29 24.27796 104.96257 33909 ft 414 kts 282°
2026-05-06 05:29 24.29153 104.90128 33914 ft 413 kts 282°
2026-05-06 05:30 24.30504 104.84008 33901 ft 412 kts 282°
2026-05-06 05:30 24.31844 104.77896 33899 ft 412 kts 282°
2026-05-06 05:31 24.33177 104.71788 33902 ft 412 kts 281°
2026-05-06 05:31 24.34512 104.65686 33898 ft 412 kts 282°
2026-05-06 05:32 24.35847 104.59584 33904 ft 411 kts 282°
2026-05-06 05:32 24.37172 104.53486 33904 ft 411 kts 282°
2026-05-06 05:33 24.38498 104.47384 33920 ft 411 kts 282°
2026-05-06 05:33 24.39824 104.41282 33921 ft 411 kts 282°
2026-05-06 05:34 24.41145 104.35179 33940 ft 411 kts 282°
2026-05-06 05:34 24.42455 104.29081 33942 ft 411 kts 281°
2026-05-06 05:35 24.43765 104.22987 33937 ft 410 kts 282°
2026-05-06 05:35 24.45074 104.16941 33967 ft 410 kts 282°
2026-05-06 05:36 24.46388 104.10865 33963 ft 409 kts 282°
2026-05-06 05:36 24.47688 104.04785 33990 ft 409 kts 281°
2026-05-06 05:37 24.48980 103.98713 33986 ft 409 kts 282°
2026-05-06 05:37 24.50277 103.92636 34007 ft 408 kts 282°
2026-05-06 05:38 24.51570 103.86561 34001 ft 408 kts 281°
2026-05-06 05:38 24.52857 103.80477 33981 ft 410 kts 282°
2026-05-06 05:39 24.54075 103.74362 33988 ft 410 kts 276°
2026-05-06 05:39 24.54304 103.68106 33989 ft 410 kts 271°
2026-05-06 05:40 24.54430 103.61839 33998 ft 411 kts 271°
2026-05-06 05:40 24.54563 103.55570 34001 ft 411 kts 271°
2026-05-06 05:41 24.54694 103.49323 33998 ft 412 kts 271°
2026-05-06 05:41 24.54814 103.43001 33998 ft 412 kts 271°
2026-05-06 05:42 24.54934 103.36748 33998 ft 412 kts 271°
2026-05-06 05:42 24.55055 103.30462 34010 ft 412 kts 271°
2026-05-06 05:43 24.55173 103.24165 34007 ft 412 kts 271°
2026-05-06 05:43 24.55618 103.17895 33918 ft 414 kts 282°
2026-05-06 05:44 24.56469 103.14881 33669 ft 415 kts 289°
2026-05-06 05:44 24.57532 103.11922 33411 ft 416 kts 289°
2026-05-06 05:44 24.58569 103.08959 32995 ft 416 kts 288°
2026-05-06 05:44 24.59590 103.05973 32344 ft 417 kts 288°
2026-05-06 05:45 24.60594 103.02990 31746 ft 415 kts 288°
2026-05-06 05:45 24.61588 103.00022 31140 ft 413 kts 288°
2026-05-06 05:45 24.62580 102.97055 30533 ft 413 kts 288°
2026-05-06 05:45 24.63572 102.94094 29917 ft 413 kts 288°
2026-05-06 05:46 24.64578 102.91145 29259 ft 412 kts 291°
2026-05-06 05:46 24.66073 102.88467 28655 ft 415 kts 309°
2026-05-06 05:46 24.68324 102.86474 28046 ft 422 kts 328°
2026-05-06 05:46 24.71122 102.85434 27434 ft 432 kts 348°
2026-05-06 05:47 24.74147 102.85544 26818 ft 443 kts
2026-05-06 05:47 24.77004 102.86859 26227 ft 452 kts 29°
2026-05-06 05:47 24.79595 102.88828 25630 ft 454 kts 32°
2026-05-06 05:47 24.82157 102.90857 25057 ft 454 kts 33°
2026-05-06 05:48 24.84700 102.92907 24484 ft 453 kts 33°
2026-05-06 05:48 24.86381 102.94268 24112 ft 453 kts 33°
2026-05-06 05:48 24.89745 102.96987 23526 ft 448 kts 33°
2026-05-06 05:48 24.92253 102.98999 23017 ft 445 kts 33°
2026-05-06 05:49 24.94750 103.00989 22506 ft 442 kts 33°
2026-05-06 05:49 24.97238 103.02966 22039 ft 437 kts 33°
2026-05-06 05:49 24.99673 103.04902 21247 ft 429 kts 33°
2026-05-06 05:49 25.02085 103.06821 20411 ft 424 kts 32°
2026-05-06 05:50 25.04451 103.08697 19826 ft 413 kts 32°
2026-05-06 05:50 25.06749 103.10499 19331 ft 399 kts 32°
2026-05-06 05:50 25.08987 103.12240 18722 ft 389 kts 30°
2026-05-06 05:50 25.10434 103.13361 18194 ft 381 kts 31°
2026-05-06 05:51 25.12573 103.15018 17678 ft 369 kts 31°
2026-05-06 05:51 25.14637 103.16619 17214 ft 356 kts 31°
2026-05-06 05:51 25.16634 103.18173 16774 ft 347 kts 31°
2026-05-06 05:51 25.18600 103.19706 16329 ft 346 kts 31°
2026-05-06 05:52 25.20560 103.21237 15886 ft 344 kts 31°
2026-05-06 05:52 25.22486 103.22742 15617 ft 330 kts 31°
2026-05-06 05:52 25.24301 103.24169 15517 ft 310 kts 30°
2026-05-06 05:52 25.26010 103.25511 15383 ft 294 kts 30°
2026-05-06 05:53 25.27663 103.26811 15253 ft 290 kts 30°
2026-05-06 05:53 25.29379 103.27815 15132 ft 269 kts
2026-05-06 05:53 25.31161 103.27958 15000 ft 247 kts 343°
2026-05-06 05:53 25.32736 103.27376 14677 ft 239 kts 322°
2026-05-06 05:54 25.33978 103.26179 14181 ft 239 kts 304°
2026-05-06 05:54 25.35013 103.24701 13722 ft 248 kts 304°
2026-05-06 05:54 25.36092 103.23176 13203 ft 255 kts 304°
2026-05-06 05:54 25.37193 103.21629 12703 ft 254 kts 305°
2026-05-06 05:55 25.38163 103.20094 12258 ft 234 kts 291°
2026-05-06 05:55 25.38516 103.18405 11840 ft 221 kts 269°
2026-05-06 05:55 25.38230 103.16785 11424 ft 214 kts 248°
2026-05-06 05:55 25.37397 103.15443 10990 ft 211 kts 226°
2026-05-06 05:56 25.36291 103.14445 10795 ft 202 kts 223°
2026-05-06 05:56 25.35199 103.13494 10655 ft 199 kts 223°
2026-05-06 05:56 25.34114 103.12545 10572 ft 198 kts 224°
2026-05-06 05:56 25.33037 103.11603 10566 ft 197 kts 224°
2026-05-06 05:57 25.31965 103.10666 10563 ft 196 kts 224°
2026-05-06 05:57 25.30898 103.09733 10680 ft 195 kts 224°
2026-05-06 05:57 25.29837 103.08807 10696 ft 193 kts 225°
2026-05-06 05:57 25.28787 103.07888 10615 ft 194 kts 225°
2026-05-06 05:58 25.27724 103.06959 10432 ft 194 kts 225°
2026-05-06 05:58 25.26672 103.06041 10224 ft 191 kts 225°
2026-05-06 05:58 25.25632 103.05133 10014 ft 191 kts 225°
2026-05-06 05:58 25.24592 103.04225 9779 ft 188 kts 225°
2026-05-06 05:59 25.23575 103.03339 9538 ft 182 kts 224°
2026-05-06 05:59 25.22613 103.02500 9322 ft 175 kts 223°
2026-05-06 05:59 25.21672 103.01679 9112 ft 169 kts 223°
2026-05-06 05:59 25.20764 103.00887 8908 ft 161 kts 225°
2026-05-06 06:00 25.19885 103.00118 8692 ft 166 kts 225°
2026-05-06 06:00 25.18966 102.99317 8502 ft 164 kts 223°
2026-05-06 06:00 25.18116 102.98579 8308 ft 149 kts 224°
2026-05-06 06:00 25.17320 102.97884 8128 ft 145 kts 224°
2026-05-06 06:01 25.16528 102.97192 7975 ft 147 kts 225°
2026-05-06 06:01 25.15716 102.96484 7800 ft 151 kts 221°
2026-05-06 06:01 25.14888 102.95763 7597 ft 153 kts 220°
2026-05-06 06:01 25.14050 102.95039 7370 ft 151 kts 223°
2026-05-06 06:02 25.13213 102.94303 6993 ft 155 kts 220°
2026-05-06 06:02 25.12418 102.93601 6901 ft 128 kts 217°
2026-05-06 06:02 25.11855 102.93114 6901 ft 80 kts 218°
2026-05-06 06:02 25.11540 102.92842 6904 ft 44 kts 219°
2026-05-06 06:03 25.11317 102.92668 6909 ft 36 kts 201°
2026-05-06 06:03 25.11142 102.92625 6905 ft 15 kts 181°
2026-05-06 06:03 25.11074 102.92693 6910 ft 14 kts 124°
2026-05-06 06:03 25.11012 102.92779 6904 ft 15 kts 128°
2026-05-06 06:04 25.10955 102.92859 6903 ft 8 kts 128°
2026-05-06 06:04 25.10913 102.92873 6908 ft 7 kts 207°
2026-05-06 06:04 25.10871 102.92838 6904 ft 8 kts 218°
2026-05-06 06:04 25.10826 102.92799 6904 ft 8 kts 218°
2026-05-06 06:05 25.10774 102.92797 6911 ft 9 kts 151°
2026-05-06 06:05 25.10728 102.92827 6908 ft 2 kts 149°
2026-05-06 06:05 25.10724 102.92830 6907 ft 0 kts 149°